Location: Newark
(47.5500°N, 8.6167°E)
Time: 10:31:09
(UTC+00:00)

Envisat - Pass Details

Date: 02 February 2020
Orbit: 764 x 766 km, 98.1° (Epoch: 19 February)

Event Time Altitude Azimuth Distance (km) Brightness Sun altitude
Rises 17:30:53 0° 178° (S) 3,219 6.4 -11.0°
Reaches altitude 10° 17:33:13 10° 183° (S) 2,297 5.7 -11.3°
Maximum altitude 17:38:11 54° 260° (W) 930 3.9 -12.2°
Drops below altitude 10° 17:43:10 10° 338° (NNW) 2,313 5.6 -13.0°
Sets 17:45:33 0° 343° (NNW) 3,244 6.3 -13.4°
